Portada
METAR-TAF:

METAR-TAF

Aeropuertos :

Muscatine, Iowa, Estados Unidos

latitud: 41-22N, longitud: 091-09W, altitud: 167 m

Observación

El informe se hizo hace 21 minutos, a las 08:35 UTC
Viento 4 kt del norte-noroeste
Temperatura 20°C
Humedad 83%
Presión 1017 hPa
Visibilidad: 16.1 km
Escasas nubes a una altura de 12000 ft

METAR: KMUT 060835Z AUTO 33004KT 10SM FEW120 20/17 A3002 RMK AO2

Hora: 03:56 (08:56 UTC)


TAF: falta

Observaciones y pronósticos meteorológicos de más de 4000 aeropuertos (mensajes METAR y TAF).

Los puntos amarillos y rojos representan las estaciones disponibles.

Ponga el ratón en el punto deseado para ver el nombre de la estación.

Haga clic para ver las observaciones y los pronósticos meteorológicos.

Para cambiar el mapa : haga clic en los botones verdes con una cruz de color negro para hacer un zoom, en el botón verde con un guión para alejar o en las flechas verdes para mapas adyacentes.


METAR-TAF: